RH
8 7 7 7 7 6 6 6 6 6 7 7 8 7 7 7 7 6 5 4 5 7 8 8 8 10 13 18 27 28 27 28 27 26 25 24 24 23 22 22 20 19 18 18 17
9 8 8 8 7 7 7 7 9 11 11 12 14 14 12 10 10 10 10 8 7 7 9 10 11 14 18 24 27 30 31 29 29 28 27 26 25 24 22 20 19 18 16 17 17
10 8 9 8 8 9 9 8 10 11 14 17 18 19 19 18 18 17 29 32 29 23 18 21 26 30 33 36 36 34 32 31 29 28 26 24 22 21 20 19 20 19 19 18 17
13 11 10 10 8 11 9 10 13 16 22 22 22 24 25 23 27 36 47 46 44 44 44 45 42 42 41 39 36 33 29 24 20 22 23 24 24 24 23 22 22 20 20 18 15
13 14 12 12 9 12 12 13 16 18 23 25 26 27 28 32 36 50 56 55 50 47 43 40 36 33 31 29 27 25 23 24 25 27 27 28 27 26 23 22 21 20 17 14 12
18 17 14 13 11 15 16 18 21 19 25 26 27 31 28 34 54 56 56 52 48 41 35 32 30 30 29 29 29 30 29 30 31 31 30 30 28 27 25 23 21 18 15 12 10
22 24 19 16 15 18 20 24 23 24 26 28 35 34 32 38 56 55 57 51 44 40 37 34 32 29 27 28 31 33 34 35 32 31 31 32 32 29 24 21 18 14 11 11 10
24 26 28 23 21 21 24 25 29 33 37 36 34 35 40 42 51 54 44 51 55 52 50 47 44 40 39 39 40 39 38 37 36 35 32 32 28 23 20 16 12 11 12 12 12
22 24 27 31 28 26 26 30 36 39 40 33 33 32 27 33 39 41 42 51 53 46 45 44 46 45 44 43 43 43 43 41 39 34 32 27 22 20 15 11 12 14 14 14 13
20 21 22 22 30 31 30 32 39 41 40 37 34 30 28 26 30 28 28 39 40 31 31 33 39 44 47 46 43 45 44 42 38 32 26 21 21 16 13 14 15 16 16 15 14
21 18 19 17 17 24 31 31 34 40 43 41 38 27 31 30 28 34 38 35 33 39 41 40 42 46 47 48 47 45 42 37 30 24 23 23 19 18 18 18 19 18 17 15 13
22 19 20 20 21 20 21 25 29 33 35 37 36 29 26 35 39 43 43 44 43 41 39 40 43 48 50 50 48 43 36 31 29 29 25 22 23 21 20 21 20 18 16 14 12
27 20 19 21 21 17 17 22 26 26 30 34 34 25 26 33 38 40 40 45 46 44 43 46 48 51 50 47 44 41 37 35 32 29 30 28 25 24 23 22 20 17 15 13 12
30 24 19 15 14 10 13 18 20 20 26 27 25 23 28 30 30 35 35 40 41 45 47 50 53 49 48 47 44 42 40 37 36 34 32 28 23 27 25 22 20 17 14 14 14
36 30 24 19 14 11 16 20 24 18 26 26 24 25 25 26 25 26 29 33 40 42 47 49 52 52 51 48 47 46 44 41 40 36 30 32 30 26 23 21 18 15 15 15 15
42 37 31 27 22 13 15 21 24 20 24 26 25 23 21 22 24 27 29 31 37 41 46 51 51 53 51 48 46 45 42 37 35 36 36 34 29 24 22 20 17 18 17 16 13
43 43 39 32 28 20 14 21 21 24 22 22 23 21 20 22 25 28 31 33 40 42 48 49 51 53 55 55 53 51 47 43 41 40 37 32 28 26 22 20 21 19 17 15 14
43 42 42 40 31 27 16 17 16 18 24 25 24 27 32 36 36 37 37 40 42 46 49 56 54 57 59 57 56 55 52 51 46 40 35 33 28 24 24 24 21 19 18 16 17
47 47 44 42 39 32 28 13 14 11 14 22 28 31 37 40 40 39 39 39 42 46 48 51 56 61 65 61 57 55 55 51 44 40 36 29 27 27 27 25 22 21 19 19 23
59 56 50 45 41 36 32 23 13 12 14 14 20 27 33 34 32 33 35 37 39 38 38 47 57 65 64 63 60 58 57 52 47 43 34 29 28 26 28 25 25 22 22 24 28
74 73 71 56 44 39 33 30 19 10 11 15 19 22 27 34 38 38 35 38 44 52 56 59 67 70 71 69 63 62 61 57 50 42 38 34 26 32 30 29 26 25 23 27 34
73 77 80 73 51 46 39 34 25 14 10 15 21 24 29 29 27 30 42 60 66 61 66 67 72 81 76 71 66 64 63 62 52 44 41 40 30 35 32 29 26 27 27 40 49
69 81 84 86 54 51 48 42 33 22 11 12 17 25 26 24 30 45 61 79 87 83 80 75 72 79 82 71 62 60 66 64 53 47 46 39 37 35 34 27 30 32 35 43 51
68 82 87 92 67 59 52 48 40 30 18 11 13 18 24 29 34 54 67 75 89 90 82 76 79 81 83 76 64 64 69 67 54 48 43 40 35 42 31 30 30 31 36 47 65
71 80 86 87 90 77 60 52 53 35 24 13 13 17 19 23 34 59 78 84 88 84 80 76 76 72 79 75 64 66 70 68 56 53 46 42 41 37 32 32 34 32 36 53 64
75 81 90 95 100 92 74 64 62 43 27 17 17 17 31 46 48 70 83 93 95 94 85 74 73 64 58 71 62 50 66 64 56 53 50 47 40 39 36 37 36 29 36 55 70
82 89 95 99 94 89 81 82 67 51 35 26 24 47 56 56 60 77 84 91 96 97 90 89 78 66 52 66 60 51 58 58 53 52 48 47 40 36 33 36 35 38 49 68 78
Wind_Speed
14 15 15 15 16 17 19 21 23 24 25 25 26 28 29 30 29 28 29 30 30 29 29 27 24 24 24 24 24 24 25 26 24 26 26 29 29 28 30 32 34 33 32 30 32
12 14 13 14 15 17 19 21 22 24 25 25 25 26 25 26 26 26 25 25 25 27 28 26 25 24 23 24 25 26 27 28 26 28 29 32 32 32 32 34 33 35 36 35 33
13 12 13 15 17 19 21 22 22 23 24 25 24 25 24 23 23 22 21 21 20 21 24 24 24 23 23 23 24 27 29 29 30 29 31 33 35 34 35 36 35 34 35 35 36
14 14 16 17 18 20 21 21 22 22 22 23 23 24 24 23 22 19 19 19 19 19 20 22 23 24 25 26 28 30 32 33 33 31 32 32 33 33 34 33 35 35 35 37 39
15 16 17 18 18 19 20 21 22 23 23 23 25 26 27 25 22 20 19 21 22 23 23 25 26 27 28 29 30 32 31 31 31 29 30 29 30 30 34 34 36 36 36 38 40
17 17 17 17 17 18 19 21 22 22 22 24 28 27 25 24 22 22 21 21 23 23 23 24 25 27 27 28 28 29 29 29 29 29 27 27 31 32 35 34 36 37 38 39 41
19 18 18 17 17 17 18 20 19 20 22 25 25 27 26 26 21 22 21 21 22 23 24 25 26 27 28 29 28 29 28 28 29 28 28 28 31 34 35 37 37 36 36 40 43
21 20 19 19 19 17 18 17 17 19 21 22 23 25 22 22 20 21 20 19 19 20 22 22 23 25 26 26 26 26 27 27 29 29 31 30 30 35 37 37 37 38 38 41 44
24 23 23 21 20 19 17 17 18 18 17 19 21 24 23 21 19 21 22 19 17 18 18 17 20 23 23 24 25 26 27 29 31 31 31 33 27 33 39 37 37 40 41 45 49
25 25 25 24 23 22 20 19 18 17 15 18 18 22 21 20 20 23 23 20 21 22 21 22 22 22 24 24 24 26 27 29 30 32 31 33 29 32 36 39 41 42 45 49 52
26 25 24 23 23 25 24 22 22 19 21 17 19 19 19 18 14 14 14 18 18 19 21 22 22 21 22 24 25 25 26 27 29 32 30 34 31 35 37 41 43 45 48 51 53
27 26 25 26 23 24 24 25 25 24 20 22 20 21 18 18 15 16 20 20 21 23 25 25 23 21 22 23 23 25 27 29 30 33 33 32 32 37 39 42 44 47 50 53 55
30 28 27 26 26 26 28 29 25 26 26 22 21 23 19 18 19 19 19 20 21 23 24 25 24 23 24 25 26 29 29 29 30 32 33 37 35 36 40 43 45 48 52 54 59
32 30 29 27 27 27 26 27 26 28 27 25 25 23 19 21 22 22 22 22 21 23 22 21 21 24 26 27 27 29 30 31 33 36 35 36 41 40 42 47 48 51 54 58 62
35 33 30 28 27 26 25 25 27 26 26 25 24 22 20 24 24 25 25 25 24 24 24 23 22 24 26 27 28 30 32 34 35 37 38 38 42 41 43 46 48 54 58 63 66
37 35 32 30 28 27 25 23 26 22 23 25 26 24 26 26 26 26 26 26 27 26 27 26 26 28 29 29 30 31 32 34 34 36 39 41 42 42 47 48 53 57 61 66 69
40 37 35 32 30 29 27 24 23 22 23 24 25 25 26 26 26 26 27 27 27 28 29 30 30 29 31 32 33 33 33 35 37 37 39 40 44 45 50 52 58 61 65 68 72
43 41 38 35 33 31 29 27 25 24 25 24 23 22 22 23 24 25 26 28 29 31 33 32 31 31 31 31 30 30 32 33 40 40 41 43 45 49 51 57 59 63 67 72 73
43 43 42 39 35 33 31 30 27 25 26 27 25 24 24 24 25 26 28 30 32 33 34 34 33 30 28 28 29 29 32 34 37 41 44 44 47 52 54 57 63 65 70 72 70
45 44 44 42 39 36 35 33 31 30 28 27 27 26 26 27 29 31 33 35 38 39 39 37 33 30 30 28 29 31 32 34 38 42 46 47 50 52 54 61 63 68 70 68 66
49 46 44 44 41 39 37 36 33 32 31 29 28 27 27 30 34 37 40 41 41 42 41 39 34 29 31 28 30 33 34 33 37 41 47 51 53 54 59 61 66 69 68 67 63
50 50 45 45 43 41 38 38 37 34 34 33 33 32 33 35 36 41 44 43 40 40 38 38 35 28 29 29 32 34 33 33 38 44 49 52 53 57 58 64 68 66 67 62 59
54 52 48 46 44 41 40 38 39 37 37 36 36 36 37 38 43 42 41 37 36 38 36 34 32 29 27 29 35 36 36 36 42 47 48 56 55 57 60 66 64 66 62 60 56
57 54 51 47 42 41 40 39 40 39 39 40 39 38 39 40 46 42 41 36 33 34 34 34 29 31 29 32 36 37 35 39 44 48 52 57 56 55 63 65 65 65 62 57 55
59 55 52 48 40 40 42 40 38 39 40 41 40 40 40 42 45 42 39 33 31 33 33 34 30 31 30 31 36 37 36 41 47 52 56 53 64 60 64 66 65 64 60 55 54
62 58 53 50 46 44 46 40 36 40 40 39 39 41 39 44 48 40 37 35 34 33 35 32 31 32 32 33 38 39 41 45 50 51 57 60 57 64 65 66 64 62 58 55 53
63 60 55 53 50 49 45 40 40 41 40 39 38 39 40 45 43 39 39 38 36 33 33 31 33 34 34 37 40 41 47 46 52 56 60 59 61 61 66 67 62 58 57 54 51
Wind_Direction
297 297 297 302 307 308 308 307 305 304 303 302 299 295 289 282 280 277 274 268 264 262 262 263 261 258 257 256 256 258 261 260 261 262 264 263 266 267 266 267 271 272 271 268 272
300 303 305 311 315 321 324 325 324 321 320 320 318 312 302 290 282 279 278 274 268 262 261 261 260 258 256 256 258 260 259 260 261 265 268 270 271 269 268 269 270 272 272 272 271
292 299 310 318 324 330 332 332 333 331 330 329 323 321 312 303 288 281 278 275 272 266 264 261 259 259 257 256 254 256 258 260 262 263 265 267 268 269 270 270 269 270 272 271 266
294 301 309 318 321 328 329 331 331 329 327 327 323 320 318 307 296 280 274 273 267 264 262 260 259 257 257 257 259 260 261 262 263 263 262 262 264 266 266 268 270 271 272 273 275
292 301 306 312 313 321 323 326 323 319 321 321 320 315 315 311 300 284 272 271 273 272 271 269 268 266 264 262 262 263 263 264 264 261 259 261 263 265 269 270 272 274 274 274 274
295 297 297 303 306 315 319 320 317 319 316 318 321 312 308 310 300 289 278 276 273 272 268 266 266 265 264 262 261 261 261 261 262 263 263 263 267 267 270 273 274 275 278 277 276
290 297 299 298 301 311 313 314 318 320 318 319 325 319 308 307 299 301 290 281 278 273 269 268 266 266 266 265 263 261 261 259 260 262 265 267 269 271 274 274 276 278 277 279 283
290 292 294 297 298 303 308 308 313 321 324 324 317 317 315 308 298 301 296 290 289 285 280 275 272 269 266 264 261 260 261 262 264 266 268 267 266 272 274 274 277 278 282 287 289
286 286 286 288 294 295 299 297 304 313 321 320 314 322 317 311 299 297 296 285 293 294 292 287 279 273 270 265 264 263 263 266 268 269 270 271 269 276 276 279 282 285 291 292 293
283 285 287 284 282 287 291 291 296 302 302 317 312 314 317 306 298 295 292 282 295 297 296 294 293 283 274 270 268 268 268 268 270 272 273 274 279 275 278 284 287 291 294 296 298
280 282 285 288 285 281 283 285 289 293 291 292 309 310 311 321 315 314 311 301 297 298 297 294 293 287 279 274 272 272 273 273 273 273 274 278 282 281 284 287 292 294 295 299 301
276 275 277 282 286 287 285 281 283 286 281 291 297 309 303 301 308 318 319 311 306 305 296 292 294 289 283 278 276 276 276 274 273 274 277 277 283 287 288 291 295 297 299 302 305
273 272 273 278 283 285 287 287 281 278 283 282 288 299 289 292 295 301 317 316 314 319 311 295 290 286 281 278 276 277 275 275 274 276 283 286 288 291 295 297 297 299 303 306 309
270 271 273 276 281 285 288 294 283 283 272 277 286 296 283 286 289 293 297 307 311 314 320 317 298 290 286 285 283 282 284 284 286 287 289 293 296 302 303 303 305 307 307 310 311
266 268 272 275 278 282 284 291 292 288 269 274 283 285 280 286 290 292 296 299 305 312 314 320 311 300 292 289 289 290 291 291 292 293 296 299 300 304 304 307 309 307 312 313 315
264 267 269 273 276 277 279 285 292 293 275 273 281 280 285 286 290 292 293 296 299 305 311 314 313 306 297 294 293 295 295 296 296 299 300 303 304 311 310 315 311 313 314 317 318
263 265 268 269 274 276 275 278 282 287 286 278 278 281 284 288 292 294 295 295 296 300 305 309 311 308 302 297 296 297 298 298 298 301 303 308 308 312 314 315 314 317 319 318 319
260 263 265 267 269 272 273 271 273 278 279 282 282 282 285 290 294 297 298 298 297 299 302 306 309 307 301 297 299 302 304 307 309 309 308 311 311 315 317 315 317 319 320 320 318
257 260 263 266 267 269 272 268 269 271 274 278 278 280 282 285 288 292 295 297 299 303 308 311 309 306 300 300 303 305 306 308 307 304 307 310 314 317 319 318 320 320 320 319 317
253 258 260 262 266 267 269 270 268 268 270 274 276 278 281 287 292 294 295 295 296 297 301 307 309 305 297 300 300 302 307 309 309 310 310 314 314 319 318 319 320 320 319 317 314
251 254 259 261 262 264 268 268 267 266 270 272 273 275 281 289 295 296 295 295 295 294 298 302 304 303 296 301 301 306 307 308 308 310 311 314 316 324 320 320 319 319 317 314 312
249 252 256 259 260 262 264 268 267 266 267 270 272 276 284 292 295 299 299 295 293 293 298 300 302 300 298 300 303 305 305 312 310 311 313 310 322 318 321 318 318 317 316 314 312
246 250 253 258 259 260 262 265 267 266 265 267 272 279 287 296 301 303 303 299 293 294 295 295 297 294 295 298 304 306 309 312 310 312 316 312 322 319 317 318 318 316 315 312 310
244 247 252 257 259 259 259 261 265 266 267 268 272 279 286 299 305 302 303 299 294 293 293 293 294 292 297 304 305 304 309 310 310 310 310 319 317 321 316 318 318 316 315 313 311
242 245 250 253 257 258 257 257 262 265 264 269 274 278 288 297 301 298 300 295 292 291 291 292 291 287 290 299 299 301 310 310 312 311 311 318 318 316 318 317 316 316 314 312 309
241 246 248 253 253 254 256 257 260 263 265 268 274 280 290 294 294 292 293 291 292 289 289 288 288 286 291 298 299 303 303 307 309 310 312 314 316 315 317 316 316 315 313 312 311
243 245 247 249 252 254 256 255 254 259 264 265 271 281 289 291 289 287 289 290 290 286 286 288 288 289 295 295 297 301 306 310 310 311 311 312 312 314 315 317 316 313 312 312 312